Year,Month,Day,Hour,Minute,Value (Times are PST for temperature in C)
2011,10,19,10,21,10.30
2011,10,19,10,22,10.30
2011,10,19,10,23,10.40
2011,10,19,10,24,10.40
2011,10,19,10,25,10.50
2011,10,19,10,26,10.50
2011,10,19,10,27,10.60
2011,10,19,10,28,10.60
2011,10,19,10,29,10.60
2011,10,19,10,30,10.70
2011,10,19,10,31,10.70
2011,10,19,10,32,10.70
2011,10,19,10,33,10.80
2011,10,19,10,34,10.80
2011,10,19,10,35,10.80
2011,10,19,10,36,10.80
2011,10,19,10,37,10.80
2011,10,19,10,38,10.90
2011,10,19,10,39,11.00
2011,10,19,10,40,11.00
2011,10,19,10,41,11.10
2011,10,19,10,42,11.10
2011,10,19,10,43,11.20
2011,10,19,10,44,11.20
2011,10,19,10,45,11.20
2011,10,19,10,46,11.30
2011,10,19,10,47,11.30
2011,10,19,10,48,11.30
2011,10,19,10,49,11.40
2011,10,19,10,50,11.40
2011,10,19,10,51,11.50
2011,10,19,10,52,11.50
2011,10,19,10,53,11.60
2011,10,19,10,54,11.60
2011,10,19,10,55,11.60
2011,10,19,10,56,11.70
2011,10,19,10,57,11.80
2011,10,19,10,58,11.80
2011,10,19,10,59,11.90
2011,10,19,11,00,12.00
2011,10,19,11,01,12.00
2011,10,19,11,02,12.10
2011,10,19,11,03,12.20
2011,10,19,11,04,12.20
2011,10,19,11,05,12.20
2011,10,19,11,06,12.30
2011,10,19,11,07,12.30
2011,10,19,11,08,12.30
2011,10,19,11,09,12.30
2011,10,19,11,10,12.40
2011,10,19,11,11,12.40
2011,10,19,11,12,12.40
2011,10,19,11,13,12.50
2011,10,19,11,14,12.50
2011,10,19,11,15,12.50
2011,10,19,11,16,12.60
2011,10,19,11,17,12.60
2011,10,19,11,18,12.70
2011,10,19,11,19,12.70
2011,10,19,11,20,12.70
2011,10,19,11,21,12.80
2011,10,19,11,22,12.80
2011,10,19,11,23,12.90
2011,10,19,11,24,12.90
2011,10,19,11,25,12.90
2011,10,19,11,26,12.90
2011,10,19,11,27,12.90
2011,10,19,11,28,12.90
2011,10,19,11,29,12.90
2011,10,19,11,30,12.80
2011,10,19,11,31,12.80
2011,10,19,11,32,12.80
2011,10,19,11,33,12.80
2011,10,19,11,34,12.80
2011,10,19,11,35,12.80
2011,10,19,11,36,12.70
2011,10,19,11,37,12.70
2011,10,19,11,38,12.70
2011,10,19,11,39,12.70
2011,10,19,11,40,12.70
2011,10,19,11,41,12.70
2011,10,19,11,42,12.70
2011,10,19,11,43,12.70
2011,10,19,11,44,12.70
2011,10,19,11,45,12.70
2011,10,19,11,46,12.70
2011,10,19,11,47,12.70
2011,10,19,11,48,12.70
2011,10,19,11,49,12.70
2011,10,19,11,50,12.80
2011,10,19,11,51,12.80
2011,10,19,11,52,12.80
2011,10,19,11,53,12.80
2011,10,19,11,54,12.80
2011,10,19,11,55,12.80
2011,10,19,11,56,12.80
2011,10,19,11,57,12.90
2011,10,19,11,58,12.90
2011,10,19,11,59,12.90
2011,10,19,12,00,13.00
2011,10,19,12,01,13.00
2011,10,19,12,02,13.10
2011,10,19,12,03,13.10
2011,10,19,12,04,13.20
2011,10,19,12,05,13.20
2011,10,19,12,06,13.30
2011,10,19,12,07,13.40
2011,10,19,12,08,13.50
2011,10,19,12,09,13.60
2011,10,19,12,10,13.70
2011,10,19,12,11,13.70
2011,10,19,12,12,13.80
2011,10,19,12,13,13.90
2011,10,19,12,14,14.00
2011,10,19,12,15,14.00
2011,10,19,12,16,14.10
2011,10,19,12,17,14.20
2011,10,19,12,18,14.30
2011,10,19,12,19,14.30
2011,10,19,12,20,14.40
2011,10,19,12,21,14.50
2011,10,19,12,22,14.50
2011,10,19,12,23,14.50
2011,10,19,12,24,14.60
2011,10,19,12,25,14.60
2011,10,19,12,26,14.60
2011,10,19,12,27,14.60
2011,10,19,12,28,14.60
2011,10,19,12,29,14.70
2011,10,19,12,30,14.70
2011,10,19,12,31,14.70
2011,10,19,12,32,14.70
2011,10,19,12,33,14.70
2011,10,19,12,34,14.70
2011,10,19,12,35,14.70
2011,10,19,12,36,14.70
2011,10,19,12,37,14.60
2011,10,19,12,38,14.60
2011,10,19,12,39,14.50
2011,10,19,12,40,14.40
2011,10,19,12,41,14.30
2011,10,19,12,42,14.30
2011,10,19,12,43,14.20
2011,10,19,12,44,14.20
2011,10,19,12,45,14.20
2011,10,19,12,46,14.20
2011,10,19,12,47,14.20
2011,10,19,12,48,14.20
2011,10,19,12,49,14.20
2011,10,19,12,50,14.20
2011,10,19,12,51,14.20
2011,10,19,12,52,14.10
2011,10,19,12,53,14.10
2011,10,19,12,54,14.00
2011,10,19,12,55,14.00
2011,10,19,12,56,14.00
2011,10,19,12,57,13.90
2011,10,19,12,58,13.90
2011,10,19,12,59,13.90
2011,10,19,13,00,13.90
2011,10,19,13,01,13.90
2011,10,19,13,02,13.90
2011,10,19,13,03,13.90
2011,10,19,13,04,13.90
2011,10,19,13,05,13.90
2011,10,19,13,06,13.90
2011,10,19,13,07,13.90
2011,10,19,13,08,13.90
2011,10,19,13,09,13.90
2011,10,19,13,10,13.90
2011,10,19,13,11,13.90
2011,10,19,13,12,14.00
2011,10,19,13,13,14.00
2011,10,19,13,14,14.00
2011,10,19,13,15,14.00
2011,10,19,13,16,14.00
2011,10,19,13,17,14.00
2011,10,19,13,18,14.00
2011,10,19,13,19,14.00
2011,10,19,13,20,14.10
2011,10,19,13,21,14.10
2011,10,19,13,22,14.10
2011,10,19,13,23,14.10
2011,10,19,13,24,14.10
2011,10,19,13,25,14.10
2011,10,19,13,26,14.10
2011,10,19,13,27,14.10
2011,10,19,13,28,14.10
2011,10,19,13,29,14.10
2011,10,19,13,30,14.20
2011,10,19,13,31,14.20
2011,10,19,13,32,14.20
2011,10,19,13,33,14.30
2011,10,19,13,34,14.30
2011,10,19,13,35,14.30
2011,10,19,13,36,14.40
2011,10,19,13,37,14.40
2011,10,19,13,38,14.50
2011,10,19,13,39,14.50
2011,10,19,13,40,14.60
2011,10,19,13,41,14.70
2011,10,19,13,42,14.80
2011,10,19,13,46,15.00
2011,10,19,13,47,15.00
2011,10,19,13,48,15.10
2011,10,19,13,49,15.20
2011,10,19,13,50,15.30
2011,10,19,13,51,15.30
2011,10,19,13,52,15.30
2011,10,19,13,53,15.40
2011,10,19,13,54,15.40
2011,10,19,13,55,15.50
2011,10,19,13,56,15.60
2011,10,19,13,57,15.70
2011,10,19,13,58,15.70
2011,10,19,13,59,15.80
2011,10,19,14,00,15.90
2011,10,19,14,01,15.90
2011,10,19,14,02,16.00
2011,10,19,14,03,16.00
2011,10,19,14,04,16.00
2011,10,19,14,05,16.10
2011,10,19,14,06,16.10
2011,10,19,14,07,16.10
2011,10,19,14,08,16.10
2011,10,19,14,09,16.10
2011,10,19,14,10,16.10
2011,10,19,14,11,16.10
2011,10,19,14,12,16.10
2011,10,19,14,13,16.10
2011,10,19,14,14,16.10
2011,10,19,14,15,16.10
2011,10,19,14,16,16.10
2011,10,19,14,17,16.10
2011,10,19,14,18,16.10
2011,10,19,14,19,16.10
2011,10,19,14,20,16.10
2011,10,19,14,21,16.10
2011,10,19,14,22,16.10
2011,10,19,14,23,16.10
2011,10,19,14,24,16.10
2011,10,19,14,25,16.10
2011,10,19,14,26,16.10
2011,10,19,14,27,16.10
2011,10,19,14,28,16.10
2011,10,19,14,29,16.10
2011,10,19,14,30,16.10
2011,10,19,14,31,16.10
2011,10,19,14,32,16.10
2011,10,19,14,33,16.10
2011,10,19,14,34,16.10
2011,10,19,14,35,16.10
2011,10,19,14,36,16.20
2011,10,19,14,37,16.20
2011,10,19,14,38,16.20
2011,10,19,14,39,16.20
2011,10,19,14,40,16.20
2011,10,19,14,41,16.20
2011,10,19,14,42,16.20
2011,10,19,14,43,16.20
2011,10,19,14,44,16.20
2011,10,19,14,45,16.20
2011,10,19,14,46,16.20
2011,10,19,14,47,16.20
2011,10,19,14,48,16.20
2011,10,19,14,49,16.20
2011,10,19,14,50,16.20
2011,10,19,14,51,16.20
2011,10,19,14,52,16.20
2011,10,19,14,53,16.20
2011,10,19,14,54,16.20
2011,10,19,14,55,16.20
2011,10,19,14,56,16.20
2011,10,19,14,57,16.20
2011,10,19,14,58,16.20
2011,10,19,14,59,16.10
2011,10,19,15,00,16.10
2011,10,19,15,01,16.10
2011,10,19,15,02,16.10
2011,10,19,15,03,16.10
2011,10,19,15,04,16.20
2011,10,19,15,05,16.20
2011,10,19,15,06,16.30
2011,10,19,15,07,16.30
2011,10,19,15,08,16.30
2011,10,19,15,09,16.30
2011,10,19,15,10,16.30
2011,10,19,15,11,16.30
2011,10,19,15,12,16.30
2011,10,19,15,13,16.30
2011,10,19,15,14,16.20
2011,10,19,15,15,16.20
2011,10,19,15,16,16.20
2011,10,19,15,17,16.10
2011,10,19,15,18,16.10
2011,10,19,15,19,16.10
2011,10,19,15,20,16.10
2011,10,19,15,21,16.10
2011,10,19,15,22,16.00
2011,10,19,15,23,16.00
2011,10,19,15,24,16.00
2011,10,19,15,25,15.90
2011,10,19,15,26,15.90
2011,10,19,15,27,15.90
2011,10,19,15,28,15.90
2011,10,19,15,29,15.80
2011,10,19,15,30,15.80
2011,10,19,15,31,15.80
2011,10,19,15,32,15.80
2011,10,19,15,33,15.70
2011,10,19,15,34,15.70
2011,10,19,15,35,15.70
2011,10,19,15,36,15.60
2011,10,19,15,37,15.60
2011,10,19,15,38,15.60
2011,10,19,15,39,15.60
2011,10,19,15,40,15.50
2011,10,19,15,41,15.50
2011,10,19,15,42,15.50
2011,10,19,15,43,15.50
2011,10,19,15,44,15.50
2011,10,19,15,45,15.50
2011,10,19,15,46,15.50
2011,10,19,15,47,15.60
2011,10,19,15,48,15.60
2011,10,19,15,49,15.60
2011,10,19,15,50,15.60
2011,10,19,15,51,15.60
2011,10,19,15,52,15.60
2011,10,19,15,53,15.60
2011,10,19,15,54,15.60
2011,10,19,15,55,15.60
2011,10,19,15,56,15.60
2011,10,19,15,57,15.60
2011,10,19,15,58,15.60
2011,10,19,15,59,15.60
2011,10,19,16,00,15.70
2011,10,19,16,01,15.70
2011,10,19,16,02,15.70
2011,10,19,16,03,15.70
2011,10,19,16,04,15.80
2011,10,19,16,05,15.80
2011,10,19,16,06,15.80
2011,10,19,16,07,15.80
2011,10,19,16,08,15.80
2011,10,19,16,09,15.80
2011,10,19,16,10,15.80
2011,10,19,16,11,15.80
2011,10,19,16,12,15.90
2011,10,19,16,13,15.90
2011,10,19,16,14,15.90
2011,10,19,16,15,15.90
2011,10,19,16,16,15.90
2011,10,19,16,17,16.00
2011,10,19,16,18,16.00
2011,10,19,16,19,16.00
2011,10,19,16,20,16.00
2011,10,19,16,21,15.90
2011,10,19,16,22,15.90
2011,10,19,16,23,15.90
2011,10,19,16,24,15.90
2011,10,19,16,25,15.80
2011,10,19,16,26,15.80
2011,10,19,16,27,15.80
2011,10,19,16,28,15.80
2011,10,19,16,29,15.80
2011,10,19,16,30,15.80
2011,10,19,16,31,15.80
2011,10,19,16,32,15.80
2011,10,19,16,33,15.80
2011,10,19,16,34,15.70
2011,10,19,16,35,15.70
2011,10,19,16,36,15.70
2011,10,19,16,37,15.70
2011,10,19,16,38,15.60
2011,10,19,16,39,15.60
2011,10,19,16,40,15.60
2011,10,19,16,41,15.50
2011,10,19,16,42,15.50
2011,10,19,16,43,15.40
2011,10,19,16,44,15.40
2011,10,19,16,45,15.30
2011,10,19,16,46,15.30
2011,10,19,16,47,15.20
2011,10,19,16,48,15.10
2011,10,19,16,49,15.00
2011,10,19,16,50,15.00
2011,10,19,16,51,15.00
2011,10,19,16,52,15.00
2011,10,19,16,53,15.00
2011,10,19,16,54,14.90
2011,10,19,16,55,14.80
2011,10,19,16,56,14.80
2011,10,19,16,57,14.70
2011,10,19,16,58,14.70
2011,10,19,16,59,14.60
2011,10,19,17,00,14.60
2011,10,19,17,01,14.50
2011,10,19,17,02,14.40
2011,10,19,17,03,14.40
2011,10,19,17,04,14.40
2011,10,19,17,05,14.40
2011,10,19,17,06,14.40
2011,10,19,17,07,14.30
2011,10,19,17,08,14.30
2011,10,19,17,09,14.20
2011,10,19,17,10,14.20
2011,10,19,17,11,14.20
2011,10,19,17,12,14.20
2011,10,19,17,13,14.10
2011,10,19,17,14,14.10
2011,10,19,17,15,14.10
2011,10,19,17,16,14.10
2011,10,19,17,17,14.00
2011,10,19,17,18,14.00
2011,10,19,17,19,14.00
2011,10,19,17,20,14.00
2011,10,19,17,21,13.90
2011,10,19,17,22,13.90
2011,10,19,17,23,13.90
2011,10,19,17,24,13.90
2011,10,19,17,25,13.90
2011,10,19,17,26,13.80
2011,10,19,17,27,13.80
2011,10,19,17,28,13.80
2011,10,19,17,29,13.80
2011,10,19,17,30,13.80
2011,10,19,17,31,13.80
2011,10,19,17,32,13.80
2011,10,19,17,33,13.80
2011,10,19,17,34,13.80
2011,10,19,17,35,13.80
2011,10,19,17,36,13.80
2011,10,19,17,37,13.70
2011,10,19,17,38,13.70
2011,10,19,17,39,13.70
2011,10,19,17,40,13.70
2011,10,19,17,41,13.70
2011,10,19,17,42,13.70
2011,10,19,17,43,13.70
2011,10,19,17,44,13.70
2011,10,19,17,45,13.70
2011,10,19,17,46,13.70
2011,10,19,17,47,13.70
2011,10,19,17,48,13.70
2011,10,19,17,49,13.70
2011,10,19,17,50,13.70
2011,10,19,17,51,13.70
2011,10,19,17,52,13.70
2011,10,19,17,53,13.70
2011,10,19,17,54,13.70
2011,10,19,17,55,13.70
2011,10,19,17,56,13.60
2011,10,19,17,57,13.60
2011,10,19,17,58,13.60
2011,10,19,17,59,13.50
2011,10,19,18,00,13.50
2011,10,19,18,01,13.40
2011,10,19,18,02,13.40
2011,10,19,18,03,13.30
2011,10,19,18,04,13.30
2011,10,19,18,05,13.30
2011,10,19,18,06,13.30
2011,10,19,18,07,13.30
2011,10,19,18,08,13.30
2011,10,19,18,09,13.30
2011,10,19,18,10,13.30
2011,10,19,18,11,13.30
2011,10,19,18,12,13.30
2011,10,19,18,13,13.30
2011,10,19,18,14,13.30
2011,10,19,18,15,13.30
2011,10,19,18,16,13.30
2011,10,19,18,17,13.30
2011,10,19,18,18,13.30
2011,10,19,18,19,13.30
2011,10,19,18,20,13.30
2011,10,19,18,21,13.30
2011,10,19,18,22,13.30
2011,10,19,18,23,13.30
2011,10,19,18,24,13.30
2011,10,19,18,25,13.30
2011,10,19,18,26,13.30
2011,10,19,18,27,13.30
2011,10,19,18,28,13.30
2011,10,19,18,29,13.30
2011,10,19,18,30,13.30
2011,10,19,18,31,13.30
2011,10,19,18,32,13.30
2011,10,19,18,33,13.20
2011,10,19,18,34,13.20
2011,10,19,18,35,13.20
2011,10,19,18,36,13.20
2011,10,19,18,37,13.20
2011,10,19,18,38,13.20
2011,10,19,18,39,13.20
2011,10,19,18,40,13.20
2011,10,19,18,41,13.20
2011,10,19,18,42,13.10
2011,10,19,18,43,13.10
2011,10,19,18,44,13.10
2011,10,19,18,45,13.10
2011,10,19,18,46,13.10
2011,10,19,18,47,13.10
2011,10,19,18,48,13.10
2011,10,19,18,49,13.10
2011,10,19,18,50,13.10
2011,10,19,18,51,13.10
2011,10,19,18,52,13.10
2011,10,19,18,53,13.20
2011,10,19,18,54,13.20
2011,10,19,18,55,13.20
2011,10,19,18,56,13.10
2011,10,19,18,57,13.10
2011,10,19,18,58,13.10
2011,10,19,18,59,13.10
2011,10,19,19,00,13.10
2011,10,19,19,01,13.00
2011,10,19,19,02,13.00
2011,10,19,19,03,12.90
2011,10,19,19,04,12.90
2011,10,19,19,05,12.90
2011,10,19,19,06,12.90
2011,10,19,19,07,12.90
2011,10,19,19,08,12.90
2011,10,19,19,09,12.90
2011,10,19,19,10,12.90
2011,10,19,19,11,12.90
2011,10,19,19,12,12.90
2011,10,19,19,13,12.90
2011,10,19,19,14,12.90
2011,10,19,19,15,12.80
2011,10,19,19,16,12.80
2011,10,19,19,17,12.80
2011,10,19,19,18,12.80
2011,10,19,19,19,12.80
2011,10,19,19,20,12.80
2011,10,19,19,21,12.80
2011,10,19,19,22,12.80
2011,10,19,19,23,12.70
2011,10,19,19,24,12.70
2011,10,19,19,25,12.70
2011,10,19,19,26,12.70
2011,10,19,19,27,12.60
2011,10,19,19,28,12.60
2011,10,19,19,29,12.60
2011,10,19,19,30,12.50
2011,10,19,19,31,12.50
2011,10,19,19,32,12.50
2011,10,19,19,33,12.40
2011,10,19,19,34,12.40
2011,10,19,19,35,12.40
2011,10,19,19,36,12.40
2011,10,19,19,37,12.40
2011,10,19,19,38,12.40
2011,10,19,19,39,12.40
2011,10,19,19,40,12.40
2011,10,19,19,41,12.40
2011,10,19,19,42,12.40
2011,10,19,19,43,12.40
2011,10,19,19,44,12.40
2011,10,19,19,45,12.40
2011,10,19,19,46,12.40
2011,10,19,19,47,12.40
2011,10,19,19,48,12.40
2011,10,19,19,49,12.40
2011,10,19,19,50,12.40
2011,10,19,19,51,12.40
2011,10,19,19,52,12.40
2011,10,19,19,53,12.40
2011,10,19,19,54,12.40
2011,10,19,19,55,12.40
2011,10,19,19,56,12.40
2011,10,19,19,57,12.40
2011,10,19,19,58,12.40
2011,10,19,19,59,12.40
2011,10,19,20,00,12.30
2011,10,19,20,01,12.30
2011,10,19,20,02,12.30
2011,10,19,20,03,12.30
2011,10,19,20,04,12.30
2011,10,19,20,05,12.30
2011,10,19,20,06,12.20
2011,10,19,20,07,12.20
2011,10,19,20,08,12.20
2011,10,19,20,09,12.20
2011,10,19,20,10,12.20
2011,10,19,20,11,12.20
2011,10,19,20,12,12.20
2011,10,19,20,13,12.20
2011,10,19,20,14,12.20
2011,10,19,20,15,12.20
2011,10,19,20,16,12.20
2011,10,19,20,17,12.20
2011,10,19,20,18,12.20
2011,10,19,20,19,12.20
2011,10,19,20,20,12.20
2011,10,19,20,21,12.20
2011,10,19,20,22,12.20
2011,10,19,20,23,12.20
2011,10,19,20,24,12.10
2011,10,19,20,25,12.10
2011,10,19,20,26,12.10
2011,10,19,20,27,12.10
2011,10,19,20,28,12.10
2011,10,19,20,29,12.00
2011,10,19,20,30,12.00
2011,10,19,20,31,11.90
2011,10,19,20,32,11.90
2011,10,19,20,33,11.90
2011,10,19,20,34,11.90
2011,10,19,20,35,11.90
2011,10,19,20,36,11.90
2011,10,19,20,37,11.80
2011,10,19,20,38,11.80
2011,10,19,20,39,11.80
2011,10,19,20,40,11.80
2011,10,19,20,41,11.70
2011,10,19,20,42,11.70
2011,10,19,20,43,11.70
2011,10,19,20,44,11.70
2011,10,19,20,45,11.60
2011,10,19,20,46,11.60
2011,10,19,20,47,11.60
2011,10,19,20,48,11.60
2011,10,19,20,49,11.60
2011,10,19,20,50,11.50
2011,10,19,20,51,11.50
2011,10,19,20,52,11.50
2011,10,19,20,53,11.50
2011,10,19,20,54,11.40
2011,10,19,20,55,11.40
2011,10,19,20,56,11.40
2011,10,19,20,57,11.40
2011,10,19,20,58,11.40
2011,10,19,20,59,11.30
2011,10,19,21,00,11.30
2011,10,19,21,01,11.30
2011,10,19,21,02,11.30
2011,10,19,21,03,11.30
2011,10,19,21,04,11.30
2011,10,19,21,05,11.30
2011,10,19,21,06,11.30
2011,10,19,21,07,11.30
2011,10,19,21,08,11.20
2011,10,19,21,09,11.20
2011,10,19,21,10,11.20
2011,10,19,21,11,11.20
2011,10,19,21,12,11.20
2011,10,19,21,13,11.20
2011,10,19,21,14,11.20
2011,10,19,21,15,11.20
2011,10,19,21,16,11.20
2011,10,19,21,17,11.20
2011,10,19,21,18,11.10
2011,10,19,21,19,11.10
2011,10,19,21,20,11.10
2011,10,19,21,21,11.10
2011,10,19,21,22,11.10
2011,10,19,21,23,11.10
2011,10,19,21,24,11.10
2011,10,19,21,25,11.10
2011,10,19,21,26,11.10
2011,10,19,21,27,11.10
2011,10,19,21,28,11.10
2011,10,19,21,29,11.10
2011,10,19,21,30,11.10
2011,10,19,21,31,11.10
2011,10,19,21,32,11.00
2011,10,19,21,33,11.00
2011,10,19,21,34,11.00
2011,10,19,21,35,11.00
2011,10,19,21,36,11.00
2011,10,19,21,37,11.00
2011,10,19,21,38,11.00
2011,10,19,21,39,11.00
2011,10,19,21,40,11.00
2011,10,19,21,41,11.00
2011,10,19,21,42,11.00
2011,10,19,21,43,11.00
2011,10,19,21,44,10.90
2011,10,19,21,45,10.90
2011,10,19,21,46,10.90
2011,10,19,21,47,10.90
2011,10,19,21,48,10.90
2011,10,19,21,49,10.90
2011,10,19,21,50,10.90
2011,10,19,21,51,10.90
2011,10,19,21,52,10.90
2011,10,19,21,53,10.90
2011,10,19,21,54,10.90
2011,10,19,21,55,10.90
2011,10,19,21,56,10.90
2011,10,19,21,57,10.90
2011,10,19,21,58,10.90
2011,10,19,21,59,10.90
2011,10,19,22,00,10.90
2011,10,19,22,01,10.90
2011,10,19,22,02,10.80
2011,10,19,22,03,10.80
2011,10,19,22,04,10.80
2011,10,19,22,05,10.80
2011,10,19,22,06,10.80
2011,10,19,22,07,10.80
2011,10,19,22,08,10.80
2011,10,19,22,09,10.80
2011,10,19,22,10,10.80
2011,10,19,22,11,10.80
2011,10,19,22,12,10.80
2011,10,19,22,13,10.80
2011,10,19,22,14,10.80
2011,10,19,22,15,10.80
2011,10,19,22,16,10.80
2011,10,19,22,17,10.80
2011,10,19,22,18,10.80
2011,10,19,22,19,10.80
2011,10,19,22,20,10.80
2011,10,19,22,21,10.80
2011,10,19,22,22,10.80
2011,10,19,22,23,10.80
2011,10,19,22,24,10.80
2011,10,19,22,25,10.80
2011,10,19,22,26,10.80
2011,10,19,22,27,10.80
2011,10,19,22,28,10.80
2011,10,19,22,29,10.80
2011,10,19,22,30,10.80
2011,10,19,22,31,10.80
2011,10,19,22,32,10.80
2011,10,19,22,33,10.80
2011,10,19,22,34,10.80
2011,10,19,22,35,10.80
2011,10,19,22,36,10.80
2011,10,19,22,37,10.80
2011,10,19,22,38,10.80
2011,10,19,22,39,10.80
2011,10,19,22,40,10.80
2011,10,19,22,41,10.80
2011,10,19,22,42,10.80
2011,10,19,22,43,10.80
2011,10,19,22,44,10.80
2011,10,19,22,45,10.80
2011,10,19,22,46,10.80
2011,10,19,22,47,10.80
2011,10,19,22,48,10.80
2011,10,19,22,49,10.80
2011,10,19,22,50,10.80
2011,10,19,22,51,10.70
2011,10,19,22,52,10.70
2011,10,19,22,53,10.70
2011,10,19,22,54,10.70
2011,10,19,22,55,10.70
2011,10,19,22,56,10.70
2011,10,19,22,57,10.70
2011,10,19,22,58,10.70
2011,10,19,22,59,10.70
2011,10,19,23,00,10.70
2011,10,19,23,01,10.70
2011,10,19,23,02,10.70
2011,10,19,23,03,10.70
2011,10,19,23,04,10.70
2011,10,19,23,05,10.70
2011,10,19,23,06,10.70
2011,10,19,23,07,10.70
2011,10,19,23,08,10.70
2011,10,19,23,09,10.70
2011,10,19,23,10,10.70
2011,10,19,23,11,10.70
2011,10,19,23,12,10.70
2011,10,19,23,13,10.70
2011,10,19,23,14,10.70
2011,10,19,23,15,10.70
2011,10,19,23,16,10.70
2011,10,19,23,17,10.70
2011,10,19,23,18,10.70
2011,10,19,23,19,10.70
2011,10,19,23,20,10.70
2011,10,19,23,21,10.70
2011,10,19,23,22,10.70
2011,10,19,23,23,10.70
2011,10,19,23,24,10.70
2011,10,19,23,25,10.80
2011,10,19,23,26,10.80
2011,10,19,23,27,10.80
2011,10,19,23,28,10.80
2011,10,19,23,29,10.80
2011,10,19,23,30,10.80
2011,10,19,23,31,10.80
2011,10,19,23,32,10.90
2011,10,19,23,33,10.90
2011,10,19,23,34,10.90
2011,10,19,23,35,10.90
2011,10,19,23,36,10.90
2011,10,19,23,37,11.00
2011,10,19,23,38,11.00
2011,10,19,23,39,11.00
2011,10,19,23,40,11.10
2011,10,19,23,41,11.20
2011,10,19,23,42,11.30
2011,10,19,23,43,11.40
2011,10,19,23,44,11.40
2011,10,19,23,45,11.50
2011,10,19,23,46,11.60
2011,10,19,23,47,11.60
2011,10,19,23,48,11.70
2011,10,19,23,49,11.70
2011,10,19,23,50,11.80
2011,10,19,23,51,11.80
2011,10,19,23,52,11.80
2011,10,19,23,53,11.80
2011,10,19,23,54,11.90
2011,10,19,23,55,11.90
2011,10,19,23,56,11.90
2011,10,19,23,57,11.90
2011,10,19,23,58,11.90
2011,10,19,23,59,11.90
